Weather History for KGRR - February, 2013

Change the Weather History Date:

Thursday, February 21, 2013

  Actual Average Record
Temperature  
Mean Temperature 24 °F 28 °F  
Max Temperature 26 °F 35 °F 66 °F (1930)
Min Temperature 21 °F 21 °F -8 °F (1968)
Degree Days  
Heating Degree Days 41 37  
Month to date heating degree days 880 817  
Since 1 July heating degree days 4246 4524  
Cooling Degree Days 0 0  
Month to date cooling degree days 0 0  
Year to date cooling degree days 0 0  
Moisture  
Dew Point 15 °F    
Average Humidity 73    
Maximum Humidity 77    
Minimum Humidity 68    
Precipitation  
Precipitation T in 0.06 in 2.96 in (1997)
Month to date precipitation 1.86 1.27  
Year to date precipitation 5.87 3.36  
Snow  
Snow T in 0.50 in 6.00 in (1898)
Month to date snowfall 22.3 11.5  
Since 1 July snowfall 46.8 61.5  
Snow Depth 1.00 in    
Sea Level Pressure  
Sea Level Pressure 30.33 in    
Wind  
Wind Speed 10 mph (NE)    
Max Wind Speed 26 mph    
Max Gust Speed 33 mph    
Visibility 10 miles    
Events Snow    
T = Trace of Precipitation, MM = Missing Value Source: NWS Daily Summary

Daily Weather History Graph

Daily Weather History Graph

Search for Another Location

Airport or City:

Trip Planner

Search our weather history database for the weather conditions in past years. The results will help you decide how hot, cold, wet, or windy it might be!

Date:

Astronomy

Feb. 21, 2013 Rise Set
Actual Time 7:30 AM EST 6:21 PM EST
Civil Twilight 7:01 AM EST 6:50 PM EST
Nautical Twilight 6:28 AM EST 7:23 PM EST
Astronomical Twilight 5:55 AM EST 7:56 PM EST
Moon 2:32 PM EST (2/21) 4:38 AM EST (2/21)
Length of Visible Light 11h 49m
Length of Day
10h 51m
Waxing Gibbous, 83% of the Moon is Illuminated
Feb 21
Waxing Gibbous
Feb 25
Full
Mar 4
Last Quarter
Mar 11
New
Mar 19
First Quarter

Hourly Weather History & Observations

Time (EST) Temp. Windchill Dew Point Humidity Pressure Visibility Wind Dir Wind Speed Gust Speed Precip Events Conditions
12:53 AM 21.9 °F 12.5 °F 15.1 °F 75% 30.32 in 8.0 mi NNW 8.1 mph - 0.00 in Snow Light Snow
1:53 AM 21.9 °F 13.4 °F 15.1 °F 75% 30.34 in 10.0 mi NW 6.9 mph - 0.00 in   Overcast
3:53 AM 21.9 °F 12.5 °F 15.1 °F 75% 30.33 in 10.0 mi NW 8.1 mph - N/A   Overcast
4:53 AM 21.9 °F 13.4 °F 16.0 °F 78% 30.34 in 10.0 mi NW 6.9 mph - N/A   Overcast
5:53 AM 23.0 °F 14.7 °F 16.0 °F 74% 30.35 in 10.0 mi NNW 6.9 mph - N/A   Overcast
6:53 AM 23.0 °F 13.9 °F 16.0 °F 74% 30.38 in 10.0 mi NNW 8.1 mph - N/A   Overcast
7:53 AM 23.0 °F 11.7 °F 16.0 °F 74% 30.36 in 10.0 mi North 11.5 mph - N/A   Overcast
8:53 AM 23.0 °F 13.1 °F 16.0 °F 74% 30.37 in 10.0 mi NNE 9.2 mph - N/A   Overcast
9:53 AM 24.1 °F 15.2 °F 17.1 °F 75% 30.39 in 10.0 mi ENE 8.1 mph - N/A   Overcast
10:53 AM 24.1 °F 18.2 °F 16.0 °F 71% 30.39 in 10.0 mi NE 4.6 mph - N/A   Overcast
11:53 AM 25.0 °F 18.1 °F 17.1 °F 72% 30.40 in 10.0 mi ENE 5.8 mph - N/A   Overcast
12:53 PM 25.0 °F 19.3 °F 17.1 °F 72% 30.40 in 10.0 mi East 4.6 mph - N/A   Overcast
1:53 PM 26.1 °F 16.2 °F 17.1 °F 69% 30.36 in 10.0 mi ENE 10.4 mph - N/A   Overcast
2:53 PM 25.0 °F 14.8 °F 16.0 °F 69% 30.33 in 10.0 mi East 10.4 mph - N/A   Mostly Cloudy
3:53 PM 25.0 °F 14.8 °F 15.1 °F 66% 30.30 in 10.0 mi East 10.4 mph - N/A   Mostly Cloudy
4:53 PM 25.0 °F 15.5 °F 15.1 °F 66% 30.35 in 10.0 mi East 9.2 mph - N/A   Overcast
5:53 PM 23.0 °F 10.6 °F 15.1 °F 72% 30.33 in 10.0 mi East 13.8 mph - N/A   Overcast
6:23 PM 21.2 °F 7.3 °F 14.0 °F 74% 30.30 in 10.0 mi East 16.1 mph - N/A   Overcast
6:53 PM 21.9 °F 9.2 °F 14.0 °F 72% 30.32 in 10.0 mi ENE 13.8 mph - N/A   Overcast
7:53 PM 21.9 °F 8.7 °F 12.9 °F 68% 30.31 in 10.0 mi East 15.0 mph - N/A   Overcast
8:53 PM 21.9 °F 9.2 °F 14.0 °F 72% 30.30 in 10.0 mi East 13.8 mph - N/A   Overcast
9:53 PM 21.0 °F 8.6 °F 12.9 °F 71% 30.27 in 10.0 mi East 12.7 mph - N/A   Overcast
10:53 PM 21.0 °F 6.6 °F 14.0 °F 74% 30.25 in 10.0 mi East 17.3 mph 24.2 mph N/A   Overcast
11:53 PM 21.0 °F 3.6 °F 14.0 °F 74% 30.19 in 10.0 mi East 26.5 mph 33.4 mph N/A   Overcast